GW7626 Weather Reports


time (UTC)temp
C
wind
direction
speed
KPH
gust
KPH
rain 1hr
cm
rain 24hr
cm
rain mn
cm
humidity
%
barometer
mb
20260906052438 25 297 0.0 0.0 0.00 0.00 0.00 88 1011.2
20260906051934 25 297 0.0 0.0 0.00 0.00 0.00 88 1011.4
20260906051430 25 297 0.0 0.0 0.00 0.00 0.00 87 1011.3
20260906050925 25 297 0.0 0.0 0.00 0.00 0.00 87 1011.2
20260906050425 25 297 0.0 0.0 0.00 0.00 0.00 86 1011.1
20260906045924 25 297 0.0 0.0 0.00 0.00 0.00 86 1011.2
20260906045423 25 297 0.0 0.0 0.00 0.00 0.00 87 1011.3
20260906044920 25 297 0.0 0.0 0.00 0.00 0.00 87 1011.2
20260906044420 25 297 0.0 0.0 0.00 0.00 0.00 87 1011.1
20260906043915 25 297 0.0 0.0 0.00 0.00 0.00 87 1011.2
20260906043411 25 297 0.0 0.0 0.00 0.00 0.00 87 1011.1
20260906042906 25 297 0.0 0.0 0.00 0.00 0.00 87 1011.1
20260906042406 25 297 0.0 0.0 0.00 0.00 0.00 86 1011.2
20260906041901 25 297 0.0 0.0 0.00 0.00 0.00 86 1011.0
20260906041357 25 297 0.0 0.0 0.00 0.00 0.00 86 1011.2
20260906040856 25 297 0.0 0.0 0.00 0.00 0.00 86 1011.0
20260906040352 25 297 0.0 0.0 0.00 0.00 0.00 86 1011.1
20260906035847 25 297 0.0 0.0 0.00 0.00 0.00 86 1011.1
20260906035342 25 297 0.0 0.0 0.00 0.00 0.00 85 1011.1
20260906034838 25 297 0.0 0.0 0.00 0.00 0.00 85 1011.1
20260906034333 25 297 0.0 0.0 0.00 0.00 0.00 84 1011.1
20260906033829 25 297 0.0 0.0 0.00 0.00 0.00 84 1011.3
20260906033328 25 297 0.0 0.0 0.00 0.00 0.00 84 1011.2
20260906032824 25 297 0.0 0.0 0.00 0.00 0.00 85 1011.2
20260906032320 25 297 0.0 0.0 0.00 0.00 0.00 85 1011.1
20260906031815 26 297 0.0 0.0 0.00 0.00 0.00 85 1011.2
20260906031310 26 297 0.0 0.0 0.00 0.00 0.00 85 1011.4
20260906030810 26 297 0.0 0.0 0.00 0.00 0.00 85 1011.4
20260906030305 26 297 0.0 0.0 0.00 0.00 0.00 85 1011.2
20260906025805 26 297 0.0 0.0 0.00 0.00 0.00 83 1011.3
20260906025259 26 297 0.0 0.0 0.00 0.00 0.00 83 1011.2
20260906024758 26 297 0.0 0.0 0.00 0.00 0.00 82 1011.2
20260906024257 26 297 0.0 0.0 0.00 0.00 0.00 82 1011.3
20260906023753 26 297 0.0 0.0 0.00 0.00 0.00 82 1011.1
20260906023248 26 297 0.0 0.0 0.00 0.00 0.00 82 1010.9
20260906022744 26 297 0.0 0.0 0.00 0.00 0.00 80 1011.1
20260906022239 26 297 0.0 0.0 0.00 0.00 0.00 81 1011.1
20260906021735 26 297 0.0 0.0 0.00 0.00 0.00 81 1010.9
20260906021234 27 297 0.0 0.0 0.00 0.00 0.00 79 1010.9
20260906020729 27 297 0.0 0.0 0.00 0.00 0.00 78 1010.7
20260906020223 27 297 0.0 0.0 0.00 0.00 0.00 77 1010.7
20260906015723 27 297 0.0 0.0 0.00 0.00 0.00 77 1010.7
20260906015221 27 297 0.0 0.0 0.00 0.00 0.00 78 1010.4
20260906014716 27 297 0.0 0.0 0.00 0.00 0.00 78 1010.6
20260906014213 27 297 0.0 0.0 0.00 0.00 0.00 79 1010.5
20260906013708 27 297 0.0 0.0 0.00 0.00 0.00 79 1010.4
20260906013208 27 297 0.0 0.0 0.00 0.00 0.00 78 1010.4
20260906012703 28 297 0.0 0.0 0.00 0.00 0.00 77 1010.4
20260906012158 28 297 0.0 0.0 0.00 0.00 0.00 75 1010.3
20260906011654 28 297 0.0 0.0 0.00 0.00 0.00 75 1010.3
20260906011154 28 297 0.0 0.0 0.00 0.00 0.00 75 1010.2
20260906010649 28 297 0.0 0.0 0.00 0.00 0.00 75 1010.3
20260906010146 28 297 0.0 0.0 0.00 0.00 0.00 75 1010.2
20260906005645 28 297 0.0 0.0 0.00 0.00 0.00 75 1010.2
20260906005144 29 297 0.0 0.0 0.00 0.00 0.00 73 1010.2
20260906004643 29 297 0.0 0.0 0.00 0.00 0.00 71 1010.3
20260906004138 29 297 0.0 0.0 0.00 0.00 0.00 73 1010.1
20260906003634 29 297 0.0 0.0 0.00 0.00 0.00 71 1010.0
20260906003130 30 297 0.0 0.0 0.00 0.00 0.00 70 1010.0
20260906002624 30 297 0.0 0.0 0.00 0.00 0.00 71 1010.3
20260906002119 30 297 0.0 0.0 0.00 0.00 0.00 68 1010.1
20260906001609 30 297 0.0 0.0 0.00 0.00 0.00 67 1010.0
20260906001108 30 297 0.0 0.0 0.00 0.00 0.00 67 1010.3
20260906000605 31 297 0.0 0.0 0.00 0.00 0.00 69 1010.0
20260906000059 31 297 0.0 0.0 0.00 0.00 0.00 66 1010.2
20260905235559 31 297 0.0 0.0 0.00 0.00 0.00 67 1010.3
20260905235054 32 297 0.0 0.0 0.00 0.00 0.00 67 1010.2
20260905234549 32 297 0.0 0.0 0.00 0.00 0.00 63 1010.2
20260905234044 32 297 0.0 0.0 0.00 0.00 0.00 62 1010.3
20260905233544 33 297 0.0 0.0 0.00 0.00 0.00 59 1010.3
20260905233044 33 297 0.0 0.0 0.00 0.00 0.00 59 1010.2
20260905232540 33 297 0.0 0.0 0.00 0.00 0.00 55 1010.4
20260905232035 34 297 0.0 1.6 0.00 0.00 0.00 53 1010.0
20260905231530 34 297 0.0 1.6 0.00 0.00 0.00 52 1010.2
20260905231026 35 297 0.0 0.0 0.00 0.00 0.00 50 1010.3
20260905230526 35 335 0.0 0.0 0.00 0.00 0.00 48 1010.3
20260905230024 35 335 0.0 0.0 0.00 0.00 0.00 49 1010.5
20260905225519 35 345 0.0 0.0 0.00 0.00 0.00 47 1010.4
20260905225014 35 294 0.0 0.0 0.00 0.00 0.00 46 1010.2
20260905224509 35 349 0.0 1.6 0.00 0.00 0.00 46 1010.3
20260905224008 35 327 0.0 1.6 0.00 0.00 0.00 45 1010.3
20260905223506 35 353 0.0 1.6 0.00 0.00 0.00 45 1010.4
20260905223001 35 18 1.6 3.2 0.00 0.00 0.00 45 1010.2
20260905222501 35 166 0.0 1.6 0.00 0.00 0.00 48 1010.2
20260905221956 35 89 1.6 1.6 0.00 0.00 0.00 47 1010.2
20260905221453 35 250 1.6 6.4 0.00 0.00 0.00 45 1010.3
20260905220949 35 339 0.0 1.6 0.00 0.00 0.00 45 1010.5
20260905220445 35 305 1.6 4.8 0.00 0.00 0.00 45 1010.3
20260905215944 35 3 0.0 4.8 0.00 0.00 0.00 46 1010.2
20260905215440 35 28 1.6 4.8 0.00 0.00 0.00 45 1010.5
20260905214936 35 275 4.8 9.7 0.00 0.00 0.00 44 1010.5
20260905214432 35 324 3.2 4.8 0.00 0.00 0.00 45 1010.4
20260905213931 35 9 1.6 6.4 0.00 0.00 0.00 46 1010.6
20260905213428 35 267 3.2 6.4 0.00 0.00 0.00 45 1010.5
20260905212923 36 335 1.6 4.8 0.00 0.00 0.00 45 1010.5
20260905212418 36 359 3.2 4.8 0.00 0.00 0.00 43 1010.2
20260905211917 36 35 1.6 12.9 0.00 0.00 0.00 43 1010.4
20260905211413 37 284 3.2 4.8 0.00 0.00 0.00 41 1010.3
20260905210909 37 348 3.2 6.4 0.00 0.00 0.00 41 1010.2
20260905210409 37 45 3.2 4.8 0.00 0.00 0.00 40 1010.6
20260905205908 37 20 3.2 9.7 0.00 0.00 0.00 40 1010.4
20260905205403 37 344 4.8 9.7 0.00 0.00 0.00 41 1010.5
20260905204901 37 340 3.2 6.4 0.00 0.00 0.00 40 1010.6
20260905204358 37 329 4.8 6.4 0.00 0.00 0.00 40 1010.6
20260905203856 37 299 3.2 4.8 0.00 0.00 0.00 41 1010.6
20260905203352 37 297 6.4 9.7 0.00 0.00 0.00 39 1010.9
20260905202848 37 23 0.0 3.2 0.00 0.00 0.00 39 1011.0
20260905202349 37 3 3.2 6.4 0.00 0.00 0.00 40 1010.8
20260905201845 37 83 1.6 6.4 0.00 0.00 0.00 40 1011.2
20260905201340 37 28 3.2 4.8 0.00 0.00 0.00 40 1011.3
20260905200839 37 328 6.4 9.7 0.00 0.00 0.00 39 1011.3
20260905200336 37 353 3.2 9.7 0.00 0.00 0.00 40 1011.4
20260905195833 38 350 6.4 12.9 0.00 0.00 0.00 38 1011.3
20260905195329 38 315 3.2 4.8 0.00 0.00 0.00 39 1011.5
20260905194825 37 344 4.8 4.8 0.00 0.00 0.00 40 1011.5
20260905194324 37 188 0.0 3.2 0.00 0.00 0.00 42 1011.7
20260905193823 37 326 1.6 4.8 0.00 0.00 0.00 40 1011.6
20260905193319 37 352 3.2 6.4 0.00 0.00 0.00 40 1011.8
20260905192814 37 1 3.2 11.3 0.00 0.00 0.00 41 1011.7
20260905192310 38 311 4.8 6.4 0.00 0.00 0.00 38 1011.8
20260905191809 38 179 3.2 4.8 0.00 0.00 0.00 38 1012.0
20260905191308 37 17 3.2 6.4 0.00 0.00 0.00 38 1011.9
20260905190807 37 66 4.8 9.7 0.00 0.00 0.00 40 1012.2
20260905190301 37 38 6.4 9.7 0.00 0.00 0.00 38 1012.3
20260905185800 38 8 6.4 9.7 0.00 0.00 0.00 37 1012.0
20260905185255 37 42 1.6 4.8 0.00 0.00 0.00 39 1012.4
20260905184754 37 22 6.4 9.7 0.00 0.00 0.00 41 1012.3
20260905184253 37 27 3.2 6.4 0.00 0.00 0.00 40 1012.4
20260905183753 36 10 0.0 3.2 0.00 0.00 0.00 42 1012.3
20260905183249 37 350 6.4 9.7 0.00 0.00 0.00 41 1012.6
20260905182748 37 334 3.2 6.4 0.00 0.00 0.00 42 1012.6
20260905182247 37 31 3.2 12.9 0.00 0.00 0.00 42 1012.7
20260905181743 37 305 0.0 4.8 0.00 0.00 0.00 44 1012.4
20260905181242 37 324 4.8 4.8 0.00 0.00 0.00 42 1012.7
20260905180737 37 310 3.2 3.2 0.00 0.00 0.00 43 1012.6
20260905180232 37 306 4.8 9.7 0.00 0.00 0.00 40 1012.7
20260905175732 37 14 4.8 11.3 0.00 0.00 0.00 41 1012.8
20260905175227 37 353 3.2 6.4 0.00 0.00 0.00 41 1012.9
20260905174722 37 345 8.0 11.3 0.00 0.00 0.00 41 1013.0
20260905174218 37 64 3.2 3.2 0.00 0.00 0.00 44 1012.9
20260905173714 37 58 0.0 4.8 0.00 0.00 0.00 43 1013.0
20260905173210 37 323 3.2 6.4 0.00 0.00 0.00 45 1013.0
20260905172709 37 21 3.2 4.8 0.00 0.00 0.00 45 1013.2
20260905172209 37 303 1.6 3.2 0.00 0.00 0.00 44 1013.1
20260905171704 37 318 3.2 4.8 0.00 0.00 0.00 44 1013.3
20260905171201 37 70 0.0 4.8 0.00 0.00 0.00 44 1013.4
20260905170658 37 43 4.8 9.7 0.00 0.00 0.00 43 1013.3
20260905170157 36 120 3.2 4.8 0.00 0.00 0.00 48 1013.5
20260905165657 36 348 3.2 11.3 0.00 0.00 0.00 46 1013.5
20260905165152 36 42 3.2 6.4 0.00 0.00 0.00 46 1013.6
20260905164647 36 37 3.2 4.8 0.00 0.00 0.00 46 1013.6
20260905164147 37 33 6.4 9.7 0.00 0.00 0.00 43 1013.7
20260905163643 36 236 1.6 9.7 0.00 0.00 0.00 46 1013.7
20260905163139 36 34 0.0 4.8 0.00 0.00 0.00 48 1013.7
20260905162635 36 325 3.2 4.8 0.00 0.00 0.00 49 1013.7
20260905162135 36 297 3.2 3.2 0.00 0.00 0.00 49 1013.7
20260905161634 35 64 3.2 6.4 0.00 0.00 0.00 49 1013.9
20260905161132 35 292 4.8 9.7 0.00 0.00 0.00 48 1013.9
20260905160627 36 356 4.8 9.7 0.00 0.00 0.00 49 1013.9
20260905160127 35 47 3.2 4.8 0.00 0.00 0.00 51 1013.9
20260905155626 35 305 1.6 4.8 0.00 0.00 0.00 50 1014.0
20260905155125 35 21 1.6 4.8 0.00 0.00 0.00 51 1014.0
20260905154620 35 109 3.2 3.2 0.00 0.00 0.00 53 1014.0
20260905154116 35 317 3.2 4.8 0.00 0.00 0.00 52 1014.0
20260905153611 35 107 0.0 1.6 0.00 0.00 0.00 56 1013.9
20260905153106 35 70 0.0 3.2 0.00 0.00 0.00 54 1014.0
20260905152601 35 105 1.6 1.6 0.00 0.00 0.00 54 1013.9
20260905152056 34 296 0.0 1.6 0.00 0.00 0.00 59 1013.9
20260905151551 35 310 1.6 4.8 0.00 0.00 0.00 55 1013.9
20260905151046 35 339 1.6 4.8 0.00 0.00 0.00 56 1013.9
20260905150541 34 312 1.6 1.6 0.00 0.00 0.00 55 1014.2
20260905150040 34 3 0.0 4.8 0.00 0.00 0.00 56 1014.1
20260905145538 34 57 0.0 4.8 0.00 0.00 0.00 56 1013.8
20260905145038 34 266 0.0 1.6 0.00 0.00 0.00 55 1014.2
20260905144533 33 241 0.0 1.6 0.00 0.00 0.00 58 1014.0
20260905144032 33 43 1.6 3.2 0.00 0.00 0.00 56 1013.9
20260905143531 33 297 1.6 1.6 0.00 0.00 0.00 57 1014.0
20260905143027 32 28 0.0 1.6 0.00 0.00 0.00 62 1013.8
20260905142525 32 277 0.0 1.6 0.00 0.00 0.00 63 1013.9
20260905142021 32 308 0.0 1.6 0.00 0.00 0.00 63 1013.7
20260905141515 31 308 0.0 1.6 0.00 0.00 0.00 67 1013.7
20260905141012 31 332 3.2 3.2 0.00 0.00 0.00 65 1013.8
20260905140506 31 322 0.0 1.6 0.00 0.00 0.00 66 1014.1
20260905140005 31 326 0.0 1.6 0.00 0.00 0.00 67 1013.8
20260905135501 31 136 0.0 0.0 0.00 0.00 0.00 67 1013.7
20260905134956 30 137 0.0 0.0 0.00 0.00 0.00 70 1013.9
20260905134455 30 135 0.0 0.0 0.00 0.00 0.00 69 1013.9
20260905133955 29 170 0.0 0.0 0.00 0.00 0.00 72 1013.9
20260905133450 28 146 0.0 0.0 0.00 0.00 0.00 73 1013.9
20260905132949 28 138 0.0 0.0 0.00 0.00 0.00 75 1014.0
20260905132444 28 242 0.0 0.0 0.00 0.00 0.00 75 1013.8
20260905131939 28 301 0.0 0.0 0.00 0.00 0.00 74 1013.9
20260905131435 28 301 0.0 0.0 0.00 0.00 0.00 76 1013.8
20260905130930 28 288 0.0 0.0 0.00 0.00 0.00 78 1013.8
20260905130429 27 288 0.0 0.0 0.00 0.00 0.00 79 1013.8
20260905125929 27 287 0.0 0.0 0.00 0.00 0.00 81 1013.6
20260905125424 26 288 0.0 0.0 0.00 0.00 0.00 82 1013.6
20260905124920 26 288 0.0 0.0 0.00 0.00 0.00 84 1013.7
20260905124416 25 288 0.0 0.0 0.00 0.00 0.00 86 1013.7
20260905123916 25 288 0.0 0.0 0.00 0.00 0.00 89 1013.5
20260905123413 24 288 0.0 0.0 0.00 0.00 0.00 92 1013.4
20260905122908 23 288 0.0 0.0 0.00 0.00 0.00 93 1013.5
20260905122407 23 288 0.0 0.0 0.00 0.00 0.00 94 1013.5
20260905121903 23 288 0.0 0.0 0.00 0.00 0.00 94 1013.4
20260905121359 23 288 0.0 0.0 0.00 0.00 0.00 95 1013.5
20260905120857 23 288 0.0 0.0 0.00 0.00 0.00 95 1013.3
20260905120352 23 288 0.0 0.0 0.00 0.00 0.00 95 1013.5
20260905115847 23 288 0.0 0.0 0.00 0.00 0.00 95 1013.2
20260905115346 23 288 0.0 0.0 0.00 0.00 0.00 95 1013.1
20260905114841 22 288 0.0 0.0 0.00 0.00 0.00 95 1013.1
20260905114340 22 288 0.0 0.0 0.00 0.00 0.00 95 1013.2
20260905113839 23 288 0.0 0.0 0.00 0.00 0.00 95 1012.8
20260905113335 22 288 0.0 0.0 0.00 0.00 0.00 95 1013.1
20260905112831 22 288 0.0 0.0 0.00 0.00 0.00 95 1012.9
20260905112325 23 288 0.0 0.0 0.00 0.00 0.00 95 1013.1
20260905111821 23 288 0.0 0.0 0.00 0.00 0.00 95 1012.9
20260905111315 22 288 0.0 0.0 0.00 0.00 0.00 94 1013.0
20260905110814 23 288 0.0 0.0 0.00 0.00 0.00 94 1012.8
20260905110308 23 288 0.0 0.0 0.00 0.00 0.00 94 1012.9
20260905105804 23 288 0.0 0.0 0.00 0.00 0.00 94 1012.8
20260905105306 23 288 0.0 0.0 0.00 0.00 0.00 94 1012.9
20260905104757 23 288 0.0 0.0 0.00 0.00 0.00 94 1012.9
20260905104254 23 288 0.0 0.0 0.00 0.00 0.00 94 1012.8
20260905103753 23 288 0.0 0.0 0.00 0.00 0.00 94 1013.0
20260905103249 23 288 0.0 0.0 0.00 0.00 0.00 94 1013.0
20260905102744 23 288 0.0 0.0 0.00 0.00 0.00 94 1013.0
20260905102241 23 288 0.0 0.0 0.00 0.00 0.00 93 1012.9
20260905101740 23 288 0.0 0.0 0.00 0.00 0.00 93 1012.8
20260905101238 23 288 0.0 0.0 0.00 0.00 0.00 93 1012.9
20260905100734 23 288 0.0 0.0 0.00 0.00 0.00 93 1012.8
20260905100230 23 288 0.0 0.0 0.00 0.00 0.00 93 1013.0
20260905095729 23 288 0.0 0.0 0.00 0.00 0.00 93 1013.0
20260905095229 23 288 0.0 0.0 0.00 0.00 0.00 93 1012.8
20260905094724 23 288 0.0 0.0 0.00 0.00 0.00 93 1013.1
20260905094219 23 288 0.0 0.0 0.00 0.00 0.00 93 1013.1
20260905093718 23 288 0.0 0.0 0.00 0.00 0.00 93 1012.7
20260905093215 23 288 0.0 0.0 0.00 0.00 0.00 93 1012.9
20260905092710 23 288 0.0 0.0 0.00 0.00 0.00 92 1012.9
20260905092205 23 288 0.0 0.0 0.00 0.00 0.00 93 1012.7
20260905091705 23 288 0.0 0.0 0.00 0.00 0.00 93 1012.6
20260905091200 23 288 0.0 0.0 0.00 0.00 0.00 93 1012.6
20260905090659 23 288 0.0 0.0 0.00 0.00 0.00 93 1012.8
20260905090155 23 288 0.0 0.0 0.00 0.00 0.00 93 1012.6
20260905085653 23 288 0.0 0.0 0.00 0.00 0.00 93 1012.6
20260905085149 23 288 0.0 0.0 0.00 0.00 0.00 92 1012.9
20260905084649 23 288 0.0 0.0 0.00 0.00 0.00 92 1012.6
20260905084143 23 288 0.0 0.0 0.00 0.00 0.00 92 1012.6
20260905083638 23 288 0.0 0.0 0.00 0.00 0.00 91 1012.8
20260905083134 23 288 0.0 0.0 0.00 0.00 0.00 91 1012.8
20260905082630 23 288 0.0 0.0 0.00 0.00 0.00 91 1012.8
20260905082126 23 288 0.0 0.0 0.00 0.00 0.00 90 1012.9
20260905081626 23 288 0.0 0.0 0.00 0.00 0.00 90 1012.7
20260905081126 23 288 0.0 0.0 0.00 0.00 0.00 90 1012.8
20260905080620 24 288 0.0 0.0 0.00 0.00 0.00 90 1012.9
20260905080115 24 288 0.0 0.0 0.00 0.00 0.00 91 1013.0
20260905075614 24 288 0.0 0.0 0.00 0.00 0.00 90 1013.0
20260905075114 24 288 0.0 0.0 0.00 0.00 0.00 89 1012.9
20260905074613 24 288 0.0 0.0 0.00 0.00 0.00 89 1012.9
20260905074109 24 288 0.0 0.0 0.00 0.00 0.00 90 1012.9
20260905073604 24 288 0.0 0.0 0.00 0.00 0.00 90 1013.0
20260905073100 24 288 0.0 0.0 0.00 0.00 0.00 90 1013.1
20260905072559 24 288 0.0 0.0 0.00 0.00 0.00 89 1012.9
20260905072055 24 288 0.0 0.0 0.00 0.00 0.00 90 1013.0
20260905071552 24 288 0.0 0.0 0.00 0.00 0.00 90 1012.9
20260905071051 24 288 0.0 0.0 0.00 0.00 0.00 89 1013.0
20260905070546 24 288 0.0 0.0 0.00 0.00 0.00 89 1013.0
20260905070042 25 288 0.0 0.0 0.00 0.00 0.00 90 1012.8
20260905065540 25 288 0.0 0.0 0.00 0.00 0.00 90 1013.1
20260905065035 25 288 0.0 0.0 0.00 0.00 0.00 89 1012.9
20260905064536 25 288 0.0 0.0 0.00 0.00 0.00 89 1013.0
20260905064031 25 288 0.0 0.0 0.00 0.00 0.00 89 1013.2
20260905063530 25 288 0.0 0.0 0.00 0.00 0.00 89 1013.0
20260905063027 25 288 0.0 0.0 0.00 0.00 0.00 89 1013.0
20260905062526 25 288 0.0 0.0 0.00 0.00 0.00 89 1012.9
20260905062021 25 288 0.0 0.0 0.00 0.00 0.00 89 1013.0
20260905061516 25 288 0.0 0.0 0.00 0.00 0.00 87 1013.0
20260905061015 25 288 0.0 0.0 0.00 0.00 0.00 87 1012.8
20260905060512 25 288 0.0 0.0 0.00 0.00 0.00 86 1013.0
20260905060007 25 288 0.0 0.0 0.00 0.00 0.00 87 1012.9
20260905055505 25 288 0.0 0.0 0.00 0.00 0.00 87 1012.9
20260905055000 25 288 0.0 0.0 0.00 0.00 0.00 87 1012.9
20260905054455 25 288 0.0 0.0 0.00 0.00 0.00 86 1012.9
20260905053951 25 288 0.0 0.0 0.00 0.00 0.00 86 1013.0
20260905053445 25 288 0.0 0.0 0.00 0.00 0.00 86 1013.0
20260905052941 25 288 0.0 0.0 0.00 0.00 0.00 86 1013.1